User: anonymous   Login
Location: Drayton Valley
(53.2170°N, 114.9830°W)
Time: 13:48:12
(UTC-06:00)
Language:

Cosmos 1302 Rocket - Orbit

View from above orbital plane
View from above orbital plane
View from above satellite
View from above satellite

Ground track
Ground track

The orbit data is extracted from the following two-line orbital elements,

1 12792U 81084B   15115.18351510  .00000410  00000-0  14602-3 0  9990
2 12792 074.0317 038.4668 0013408 159.2213 304.8529 14.37292938762418
Epoch (UTC): 25 April 2015 04:24:15
Eccentricity: 0.0013408
inclination: 74.0317°
perigee height: 758 km
apogee height: 777 km
right ascension of ascending node: 38.4668°
argument of perigee: 159.2213°
revolutions per day: 14.37292938
mean anomaly at epoch: 304.8529°
orbit number at epoch: 76241

The dashed part of the orbit path shows where the satellite is in the earth's shadow,  

DLR